Home 2018-08-23T23:50:42-04:00
Market Focus
{"effect":"slide-v","fontstyle":"normal","autoplay":"true","timer":"5000"}
Market Focus UPDATED DAILY
Latest News
{"effect":"slide-v","fontstyle":"normal","autoplay":"true","timer":"3000"}
Latest Press- Releases
24/7 Market Alerts
Latest Market News
Recent Press Releases
SymbolsReleaseDateSource
Venture Breakfast Bits, by 24/7 Market NewsJune 17, 201924/7 Market News2019-06-17 09:25:07
Venture Breakfast Bits, by 24/7 Market NewsJune 14, 201924/7 Market News2019-06-14 09:41:04
Venture Breakfast Bits, by 24/7 Market NewsJune 13, 201924/7 Market News2019-06-13 09:16:24
Cannabis and CBD Stocks enjoying the summer growing seasonJune 12, 201924/7 Market News2019-06-12 09:06:57
Venture Breakfast Bits, by 24/7 Market NewsJune 5, 20192019-06-05 09:28:51
Venture Breakfast Bits, by 24/7 Market NewsJune 4, 201924/7 Market News2019-06-04 09:05:35
Venture Breakfast Bits, by 24/7 Market NewsJune 3, 201924/7 Market News2019-06-03 09:30:22
Venture Breakfast Bits, by 24/7 Market NewsMay 30, 201924/7 Market News2019-05-30 09:17:04
Venture Breakfast Bits, by 24/7 Market NewsMay 29, 201924/7 Market News2019-05-29 09:19:46
Venture Breakfast Bits, by 24/7 Market NewsMay 28, 201924/7 Market News2019-05-28 09:17:48
Venture Breakfast Bits, by 24/7 Market NewsMay 24, 201924/7 Market News2019-05-24 09:14:38
CBD market expected to reach $22 BillionMay 23, 201924/7 Market News2019-05-23 11:56:56
Venture Breakfast Bits, by 24/7 Market NewsMay 23, 201924/7 Market News2019-05-23 09:11:10
Venture Breakfast Bits, by 24/7 Market NewsMay 22, 201924/7 Market News2019-05-22 09:33:43
Venture Breakfast Bits, by 24/7 Market NewsMay 21, 201924/7 Market News2019-05-21 09:22:06
Venture Breakfast Bits, by 24/7 Market NewsMay 20, 201924/7 Market News2019-05-20 09:38:31
Venture Breakfast Bits, by 24/7 Market NewsMay 17, 201924/7 Market News2019-05-17 09:15:14
Venture Breakfast Bits, by 24/7 Market NewsMay 16, 201924/7 Market News2019-05-16 09:30:38
Venture Breakfast Bits, by 24/7 Market NewsMay 15, 201924/7 Market News2019-05-15 09:25:16
52 Week High Shout Out, by 24/7 Market NewsMay 14, 201924/7 Market News2019-05-14 09:45:09
Venture Breakfast Bits, by 24/7 Market NewsMay 14, 201924/7 Market News2019-05-14 09:25:06
Lunchtime Venture Snack, by 24/7 Market NewsMay 13, 201924/7 Market News2019-05-13 12:37:01
Iconic Brands – ICNB – Announces Closing of Green Grow Farms AcquisitionMay 13, 201924/7 Market News2019-05-13 11:19:57
Venture Breakfast Bits, by 24/7 Market NewsMay 13, 201924/7 Market News2019-05-13 09:10:58
Influential Beverage Leaders set to plow into the Hemp infused Beverage marketMay 13, 201924/7 Market News2019-05-13 08:53:38
Venture Breakfast Bits, by 24/7 Market NewsMay 10, 201924/7 Market News2019-05-10 09:43:11
Venture Breakfast Bits, by 24/7 Market NewsMay 9, 201924/7 Market News2019-05-09 10:19:57
Venture Breakfast Bits, by 24/7 Market NewsMay 8, 20192019-05-08 09:23:20
Joint Ventures rolling in the Weed SpaceMay 7, 201924/7 Market News2019-05-07 10:03:59
Venture Breakfast Bits, by 24/7 Market NewsMay 6, 201924/7 Market News2019-05-06 09:31:37
Weekly Watch, by 24/7 Market NewsMay 6, 201924/7 Market News2019-05-06 09:23:41
Venture Breakfast Bits, by 24/7 Market NewsMay 2, 201924/7 Market News2019-05-02 09:30:11
Venture Breakfast Bits, by 24/7 Market NewsMay 1, 201924/7 Market News2019-05-01 09:46:09
Venture Breakfast Bits, by 24/7 Market NewsApril 30, 201924/7 Market News2019-04-30 09:43:55
Venture Breakfast Bits, by 24/7 Market NewsApril 29, 201924/7 Market News2019-04-29 09:20:27
Venture Breakfast Bits, by 24/7 Market NewsApril 25, 201924/7 Market News2019-04-25 09:41:39
Venture Breakfast Bits, by 24/7 Market NewsApril 23, 201924/7 Market News2019-04-23 09:40:14
Venture Breakfast Bits, by 24/7 Market NewsApril 22, 201924/7 Market News2019-04-22 09:33:39
Venture Breakfast Bits, by 24/7 Market NewsApril 18, 201924/7 Market News2019-04-18 09:32:26
Venture Breakfast Bits, by 24/7 Market NewsApril 17, 201924/7 Market News2019-04-17 09:29:07
Venture Breakfast Bits, by 24/7 Market NewsApril 16, 201924/7 Market News2019-04-16 09:23:11
Venture Breakfast Bits, by 24/7 Market NewsApril 15, 201924/7 Market News2019-04-15 09:15:29
Venture Breakfast Bits, by 24/7 Market NewsApril 12, 201924/7 Market News2019-04-12 09:19:50
Venture Breakfast Bits, by 24/7 Market NewsApril 11, 201924/7 Market News2019-04-11 09:16:36
Venture Breakfast Bits, by 24/7 Market NewsApril 10, 201924/7 Market News2019-04-10 09:18:47
Venture Breakfast Bits, by 24/7 Market NewsApril 9, 201924/7 Market News2019-04-09 09:38:50
Venture Breakfast Bits, by 24/7 Market NewsApril 8, 201924/7 Market News2019-04-08 09:41:15
Venture Breakfast Bits, by 24/7 Market NewsApril 4, 201924/7 Market News2019-04-04 09:26:04
Venture Breakfast Bits, by 24/7 Market NewsApril 3, 201924/7 Market News2019-04-03 09:31:41
Venture Breakfast Bits, by 24/7 Market NewsApril 2, 201924/7 Market News2019-04-02 09:43:48
Venture Breakfast Bits, by 24/7 Market NewsApril 1, 201924/7 Market News2019-04-01 09:40:38
Venture Breakfast Bits, by 24/7 Market NewsMarch 29, 20192019-03-29 09:50:25
Environmental Testing Laboratory study confirms that Alltemp Refrigerant Outperforms Industry Leading R-404A Replacement by nearly 20%March 28, 201924/7 Market News2019-03-28 09:26:55
24/7 Market News Special Situation ReportMarch 28, 201924/7 Market News2019-03-28 09:14:30
Venture Breakfast Bits, by 24/7 Market NewsMarch 27, 201924/7 Market News2019-03-27 09:46:21
Venture Breakfast Bits, by 24/7 Market NewsMarch 26, 201924/7 Market News2019-03-26 09:44:00
24/7 Market News Special Situation ReportMarch 25, 201924/7 Market News2019-03-25 09:45:27
Alltemp Enters into License and Distribution Agreement with Energy Sales Innovations Pty Ltd (Australia)March 21, 201924/7 Market News2019-03-21 09:27:45
Venture Breakfast Bits, by 24/7 Market NewsMarch 21, 201924/7 Market News2019-03-21 09:17:18
Venture Breakfast Bits, by 24/7 Market NewsMarch 20, 201924/7 Market News2019-03-20 09:39:03
Venture Breakfast Bits, by 24/7 Market NewsMarch 19, 201924/7 Market News2019-03-19 09:39:24
Venture Breakfast Bits, by 24/7 Market NewsMarch 18, 201924/7 Market News2019-03-18 09:35:58
Better Green Technologies are the true “Green New Deal”March 5, 201924/7 Market News2019-03-05 12:28:15
Kraig Biocraft Laboratories’ Spider Silk Technology Successfully Delivered to VietnamJanuary 7, 201924/7 Market News2019-01-07 14:19:44
Kraig Biocraft Laboratories Signs Pivotal Agreement to Import and Rear Silkworms in VietnamNovember 20, 201824/7 Market News2018-11-20 10:05:16
Kraig Biocraft Laboratories selects new high performance recombinant spider silk for delivery to US ARMYOctober 30, 201824/7 Market News2018-10-30 08:50:12
Kraig Biocraft Laboratories Delivers Ballistic Shootpack Panels to U.S. ArmyAugust 20, 201824/7 Market News2018-08-20 11:42:52
Kraig Biocraft Laboratories accelerates its Spider Silk production ramp up, the result of recent meetings with Senior Vietnamese and US Embassy officialsJuly 24, 201824/7 Market News2018-07-24 09:53:15
Kraig Biocraft Laboratories celebrates the opening of Prodigy Textiles Co. Ltd., facility in Quang Nam, VietnamJuly 10, 2018247MarketNews.com2018-07-10 08:22:15
Kraig Biocraft Laboratories management travels to Vietnam to oversee the opening of its spider silk production subsidiary, Prodigy TextilesJuly 3, 20182018-07-03 09:01:42
Kraig Biocraft Laboratories works with local cooperative to expand Mulberry production in Quang Nam, VietnamJune 26, 20182018-06-26 08:50:41
Kraig Labs’ new DNA Synthesis breakthrough could unlock the Revenue Streams doorMay 23, 201824/7 MarketNews2018-05-23 11:38:50

About 24/7 Market News

If you're looking to improve your company's brand awareness and financial market position, no matter the market, 24/7 Market News is right for you. Our corporate communications package will help you take control your company's message and forge a confident brand development strategy. As your tactical investor relations and public communications source, 24/7 Market News understands the value of comprehensive corporate communications that effectively spread your message to the public, maintain compliance, and connect you with your future investors, so we will design a strategic program that meets your needs and budget. Our proven programs deliver value, and results, by incorporating unique multi-platform solution that include targeted news dissemination, social media promotions, influence support, and investor awareness campaigns.

MORE ABOUT US

Send this to a friend

Hi, this may be interesting you: Home! This is the link: https://www.247marketnews.com/